{"data":{"norad_id":64571,"epoch":"2026-09-21T21:43:48.495360Z","epoch_age_seconds":60044,"freshness":"FRESH","line1":"1 64571U 25135AV  26264.90542240  .00000862  00000+0  90599-4 0  9996","line2":"2 64571  97.7807  17.7962 0001982  68.1798 291.9632 14.91970656 68301","mean_motion":14.91970656,"eccentricity":0.0001982,"inclination_deg":97.7807,"raan_deg":17.7962,"arg_perigee_deg":68.1798,"mean_anomaly_deg":291.9632,"bstar":9.0599e-5,"rev_number":6830,"period_min":96.51664355522,"perigee_km":590.41001720891,"apogee_km":593.17289684928,"semimajor_km":6969.9284570291,"source":"CELESTRAK","updated_at":"2026-09-22T09:00:29.850937Z"}}